Regional Weather Roundup
Issued by NWS

Home | Current Version | Previous Version | Graphics & Text | Print | Product List | Glossary On
Versions: 1 2 3 4 5 6 7 8 9 10 11 12 13 14 15 16 17 18 19 20 21 22 23 24 25 26 27 28 29 30 31 32 33 34 35 36 37 38 39 40 41 42 43 44 45 46 47 48 49 50
000
ASUS43 KIND 141059
RWRIN

WEATHER ROUNDUP FOR INDIANA
NATIONAL WEATHER SERVICE INDIANAPOLIS IN
600 AM EST THU DEC 14 2017

NOTE: "FAIR" INDICATES FEW OR NO CLOUDS BELOW 12,000 FEET WITH NO
SIGNIFICANT WEATHER AND/OR OBSTRUCTIONS TO VISIBILITY.

* - STATION DOES NOT REPORT WEATHER SUCH AS PRECIPITATION OR FOG.

+ - STATION NOT QUALITY CONTROLLED BY THE NATIONAL WEATHER SERVICE.
    USE DATA WITH CAUTION...ESPECIALLY DEWPOINT AND RELATIVE
    HUMIDITY OBSERVATIONS.

INZ001>003-010>013-019-020-141200-
NORTHWEST INDIANA

CITY           SKY/WX    TMP DP  RH WIND       PRES   REMARKS
GARY /AIRPORT/ FLURRIES  25  19  80 NW12      29.93R WCI  14
MONTICELLO +   FLURRIES  25  17  72 N9        29.91R WCI  15

$$

LMZ046-743>745-141200-
SOUTHERN LAKE MICHIGAN

STATION/POSITION TIME  TEMP    WIND        PRES    WAVE
                       AIR SEA DIR/SP/G            HT
                 (UTC) (F)     (DEG/KT/KT) (MB)    (FT)
BURNS HARBOR     1040   29      30/ 15/ 19 1013.2R
MICHIGAN CITY    1030   23      80/  9/ 11   N/A

$$

INZ004-005-014>016-021>024-141200-
NORTH CENTRAL INDIANA

CITY           SKY/WX    TMP DP  RH WIND       PRES   REMARKS
GOSHEN         CLOUDY    13   9  84 N10       29.90R WCI   0
PERU/GRISSOM   PTCLDY    18  14  85 N8        29.90R WCI   8
SOUTH BEND     CLOUDY    10   8  92 N9        29.93R WCI  -3

$$

INZ006>009-017-018-025>027-141200-
NORTHEAST INDIANA

CITY           SKY/WX    TMP DP  RH WIND       PRES   REMARKS
FORT WAYNE     PTCLDY    19  13  77 NW7       29.89R WCI  10
KENDALLVILLE + CLOUDY    15  11  85 N9        29.87R WCI   3

$$

INZ028-029-035-036-043>045-051>053-141200-
WEST CENTRAL INDIANA

CITY           SKY/WX    TMP DP  RH WIND       PRES   REMARKS
LAFAYETTE      CLOUDY    28  18  66 N10       29.92R WCI  19
TERRE HAUTE    CLOUDY    29  19  66 NW8       29.93R WCI  21

$$

INZ030>032-037>040-046>048-054>057-064-065-141200-
CENTRAL INDIANA

CITY           SKY/WX    TMP DP  RH WIND       PRES   REMARKS
INDIANAPOLIS   CLOUDY    28  18  66 N10       29.90R WCI  19
-EAGLE CREEK   CLOUDY    28  18  66 N8        29.90R WCI  20
KOKOMO +       CLEAR     19  15  84 N9        29.91R WCI   8
MT COMFORT *+  CLOUDY    21  18  86 N12       29.90R WCI   9
SHELBYVILLE    CLOUDY    26  14  60 N16G22    29.90R WCI  14

$$

INZ033-034-041-042-049-050-058-059-141200-
EAST CENTRAL INDIANA

CITY           SKY/WX    TMP DP  RH WIND       PRES   REMARKS
MUNCIE         CLOUDY    22  16  78 N9        29.86R WCI  12
RICHMOND +     CLOUDY    23  18  80 NW12      29.85R WCI  12

$$

INZ060-061-067>069-081>083-085>088-141200-
SOUTHWEST INDIANA

CITY           SKY/WX    TMP DP  RH WIND       PRES   REMARKS
EVANSVILLE     CLOUDY    31  20  63 N9G21     29.94R WCI  23
HUNTINGBURG +  CLEAR     28  20  71 N8        29.93R WCI  20

$$

INZ062-063-066-070>080-084-089>092-141200-
SOUTH CENTRAL AND SOUTHEAST INDIANA

CITY           SKY/WX    TMP DP  RH WIND       PRES   REMARKS
BLOOMINGTON    CLOUDY    30  19  63 N12       29.90R WCI  20
SEYMOUR +      CLOUDY    32  19  59 NW8       29.91R WCI  25

$$





USA.gov is the U.S. government's official web portal to all federal, state and local government web resources and services.